Weather History for Salina, KS

Change the Weather History Date:

Monday, February 13, 2012

  Actual Average Record
Temperature  
Mean Temperature 30 °F 35 °F  
Max Temperature 34 °F 46 °F 78 °F (1921)
Min Temperature 25 °F 24 °F -31 °F (1905)
Degree Days  
Heating Degree Days 35 30  
Month to date heating degree days 414 410  
Since 1 July heating degree days 3208 3426  
Cooling Degree Days 0 0  
Month to date cooling degree days 0 0  
Year to date cooling degree days 0 0  
Moisture  
Dew Point 29 °F    
Average Humidity 92    
Maximum Humidity 100    
Minimum Humidity 84    
Precipitation  
Precipitation 0.05 in 0.04 in 0.64 in (2003)
Month to date precipitation 1.90 0.49  
Year to date precipitation 2.05 1.12  
Sea Level Pressure  
Sea Level Pressure 29.81 in    
Wind  
Wind Speed 9 mph (SSW)    
Max Wind Speed 23 mph    
Max Gust Speed 33 mph    
Visibility 6 miles    
Events Rain , Snow    
T = Trace of Precipitation, MM = Missing Value Source: NWS Daily Summary

Daily Weather History Graph

Daily Weather History Graph

Search for Another Location

Airport:

Trip Planner

Search our weather history database for the weather conditions in past years. The results will help you decide how hot, cold, wet, or windy it might be!

Date:

Astronomy

Feb. 13, 2012 Rise Set
Actual Time 7:24 AM CST 6:05 PM CST
Civil Twilight 6:57 AM CST 6:32 PM CST
Nautical Twilight 6:26 AM CST 7:04 PM CST
Astronomical Twilight 5:55 AM CST 7:35 PM CST
Moon No Moon Rise 10:29 AM CST (2/13)
Length of Visible Light 11h 35m
Length of Day
10h 40m
Waning Gibbous, 61% of the Moon is Illuminated
Feb 13
Waning Gibbous
Feb 14
Last Quarter
Feb 21
New
Feb 29
First Quarter
Mar 8
Full

Hourly Weather History & Observations

Time (CST) Temp. Windchill Dew Point Humidity Pressure Visibility Wind Dir Wind Speed Gust Speed Precip Events Conditions
1:53 AM 27.0 °F 14.3 °F 23.0 °F 85% 29.99 in 10.0 mi South 17.3 mph 26.5 mph 0.00 in   Overcast
2:41 AM 28.4 °F 16.2 °F 24.8 °F 86% 29.92 in 10.0 mi South 17.3 mph 27.6 mph N/A   Overcast
2:53 AM 28.0 °F 15.7 °F 24.1 °F 85% 29.94 in 10.0 mi South 17.3 mph 25.3 mph N/A   Overcast
3:53 AM 28.9 °F 16.5 °F 25.0 °F 85% 29.90 in 10.0 mi South 18.4 mph 28.8 mph N/A   Overcast
4:53 AM 30.0 °F 19.1 °F 26.1 °F 85% 29.89 in 10.0 mi South 15.0 mph 21.9 mph N/A   Overcast
5:53 AM 30.0 °F 19.1 °F 26.1 °F 85% 29.88 in 9.0 mi South 15.0 mph - N/A   Overcast
6:51 AM 30.2 °F 20.8 °F 26.6 °F 86% 29.82 in 5.0 mi South 11.5 mph 21.9 mph 0.00 in Rain Light Freezing Rain
6:53 AM 30.0 °F 20.5 °F 27.0 °F 88% 29.86 in 5.0 mi South 11.5 mph 19.6 mph 0.00 in Rain Light Freezing Rain
7:00 AM 30.2 °F 20.2 °F 26.6 °F 86% 29.82 in 5.0 mi South 12.7 mph 20.7 mph 0.00 in Snow Light Snow
7:15 AM 30.2 °F 20.8 °F 28.4 °F 93% 29.81 in 5.0 mi South 11.5 mph - 0.00 in Snow Light Snow
7:53 AM 30.0 °F 20.0 °F 28.0 °F 92% 29.84 in 3.0 mi South 12.7 mph 20.7 mph 0.00 in Snow Light Snow
8:18 AM 30.2 °F 20.8 °F 28.4 °F 93% 29.80 in 3.0 mi South 11.5 mph - 0.00 in   Light Freezing Drizzle
8:30 AM 30.2 °F 21.3 °F 28.4 °F 93% 29.80 in 2.5 mi South 10.4 mph - 0.00 in   Light Freezing Drizzle
8:53 AM 30.9 °F 22.2 °F 28.9 °F 92% 29.83 in 2.5 mi South 10.4 mph - 0.00 in   Light Freezing Drizzle
9:53 AM 30.9 °F 22.2 °F 30.0 °F 96% 29.82 in 2.5 mi South 10.4 mph - 0.00 in   Light Freezing Drizzle
10:53 AM 30.9 °F 21.7 °F 30.0 °F 96% 29.80 in 2.5 mi South 11.5 mph - 0.00 in   Light Freezing Drizzle
11:53 AM 32.0 °F 24.8 °F 30.9 °F 96% 29.78 in 2.0 mi South 8.1 mph - 0.02 in   Light Freezing Drizzle
12:53 PM 32.0 °F 24.8 °F 30.9 °F 96% 29.76 in 2.0 mi South 8.1 mph - 0.00 in   Light Freezing Drizzle
12:56 PM 32.0 °F 25.6 °F 30.2 °F 93% 29.72 in 2.0 mi South 6.9 mph - 0.00 in   Light Drizzle
1:53 PM 32.0 °F 27.5 °F 32.0 °F 100% 29.74 in 2.0 mi South 4.6 mph - 0.01 in   Light Drizzle
2:53 PM 33.1 °F - 32.0 °F 96% 29.73 in 2.0 mi Calm Calm - 0.01 in   Light Drizzle
3:39 PM 33.8 °F - 32.0 °F 93% 29.71 in 3.0 mi Calm Calm - 0.01 in   Light Drizzle
3:46 PM 33.8 °F - 32.0 °F 93% 29.71 in 2.0 mi Calm Calm - 0.01 in   Light Drizzle
3:53 PM 33.1 °F - 32.0 °F 96% 29.74 in 2.0 mi Calm Calm - 0.01 in   Overcast
4:53 PM 34.0 °F - 32.0 °F 92% 29.75 in 2.0 mi Calm Calm - N/A   Overcast
5:00 PM 33.8 °F - 32.0 °F 93% 29.72 in 7.0 mi Calm Calm - N/A   Overcast
5:53 PM 33.1 °F 28.7 °F 32.0 °F 96% 29.78 in 6.0 mi West 4.6 mph - N/A   Overcast
6:53 PM 33.1 °F 27.7 °F 30.9 °F 92% 29.80 in 8.0 mi West 5.8 mph - N/A   Overcast
7:53 PM 33.1 °F 26.9 °F 30.0 °F 89% 29.82 in 9.0 mi WNW 6.9 mph - N/A   Overcast
8:53 PM 30.9 °F 27.5 °F 28.9 °F 92% 29.83 in 8.0 mi WNW 3.5 mph - N/A   Mostly Cloudy
9:53 PM 28.0 °F 21.7 °F 27.0 °F 96% 29.84 in 9.0 mi West 5.8 mph - N/A   Mostly Cloudy
10:00 PM 28.4 °F 22.2 °F 26.6 °F 93% 29.80 in 9.0 mi West 5.8 mph - N/A   Clear
10:53 PM 27.0 °F 19.5 °F 25.0 °F 92% 29.87 in 8.0 mi WSW 6.9 mph - N/A   Clear
11:53 PM 25.0 °F 18.1 °F 21.9 °F 88% 29.87 in 10.0 mi West 5.8 mph - N/A   Clear